[Iaude] MPEC X253: 2023 XL11 [a=2.59,e=0.64,i=5.8,H=26.6]

mpec at marsden.cfa.harvard.edu mpec at marsden.cfa.harvard.edu
Tue Dec 12 17:58:07 EST 2023


M.P.E.C. 2023-X253                            Issued 2023 December 12, 22:56 UT

     The Minor Planet Electronic Circulars contain information on unusual
         minor planets, routine data on comets and natural satellites,
         and occasional editorial announcements.  They are published
    on behalf of Division F of the International Astronomical Union by the
          Minor Planet Center, Smithsonian Astrophysical Observatory,
                          Cambridge, MA 02138, U.S.A.
			  
             Prepared using the Tamkin Foundation Computer Network

                              MPC at CFA.HARVARD.EDU
            URL https://www.minorplanetcenter.net/    ISSN 1523-6714

                                   2023 XL11                                    


Observations:
     K23X11L  C2023 12 05.45453304 09 16.210-02 48 06.08         22.81GVEX253F51
     K23X11L  C2023 12 05.46560504 09 17.704-02 48 16.77         22.39GVEX253F51
     K23X11L  C2023 12 05.47757404 09 19.295-02 48 28.91         21.76GVEX253F51
     K23X11L  C2023 12 05.48862904 09 20.801-02 48 40.05         23.20GVEX253F51
     K23X11L* C2023 12 08.44010804 20 11.691-03 46 55.28         21.50wXEX253F52
     K23X11L  C2023 12 08.45313104 20 14.779-03 47 13.57         21.90wXEX253F52
     K23X11L  C2023 12 08.46619904 20 17.929-03 47 31.92         21.57wXEX253F52
     K23X11L  C2023 12 09.21625 04 24 15.82 -04 06 36.2          22.6 GVEX253I52
     K23X11L  C2023 12 09.22083 04 24 17.13 -04 06 43.8          22.1 GVEX253I52
     K23X11L  C2023 12 09.22543 04 24 18.51 -04 06 49.5          22.1 GVEX253I52
     K23X11L  C2023 12 09.44844904 25 30.006-04 12 25.66         21.62GVEX253F51
     K23X11L  C2023 12 09.44926104 25 30.223-04 12 27.11         22.18GVEX253F51
     K23X11L  C2023 12 12.40006704 50 33.810-05 59 53.22         20.78wXEX253F51
     K23X11L  C2023 12 12.42173504 50 48.075-06 00 57.46         20.86wXEX253F51
     K23X11L  C2023 12 12.43216204 50 54.902-06 01 27.71         20.91wXEX253F51

Observer details:
F51 Pan-STARRS 1, Haleakala.  Observers J. Herman, T. Lowe, P. Minguez, A.
    Schultz, I. Smith.  Measurers K. Chambers, T. de Boer, J. Fairlamb, H.
    Gao, M. Huber, C.-C. Lin, E. Magnier, Y. Ramanjooloo, R. Wainscoat, R.
    Weryk.  1.8-m Ritchey-Chretien + CCD.
F52 Pan-STARRS 2, Haleakala.  Observers J. Herman, T. Lowe, P. Minguez, A.
    Schultz, I. Smith.  Measurers K. Chambers, T. de Boer, J. Fairlamb, H.
    Gao, M. Huber, C.-C. Lin, E. Magnier, Y. Ramanjooloo, R. Wainscoat, R.
    Weryk.  1.8-m Ritchey-Chretien + CCD.
I52 Steward Observatory, Mt. Lemmon Station.  Observer K. W. Wierzchos.
    Measurers B. Gray, D. Rankin, F. C. Shelly.  1.0-m f/2.0 prime focus +
    CCD.

Orbital elements:
2023 XL11                                                Earth MOID = 0.0047 AU
Epoch 2023 Sept. 13.0 TT = JDT 2460200.5                MPC                     
M 331.36236              (2000.0)            P               Q                  
n   0.23619513     Peri.   29.18710     -0.50050679     -0.85979547             
a   2.5919230      Node    91.01234     +0.77336459     -0.49658646             
e   0.6428563      Incl.    5.81012     +0.38910174     -0.11896910             
P   4.17           H   26.62          G   0.15           U   8                  
Residuals in seconds of arc
231205 F51  0.3-  0.1-    231208 F52  0.0   0.0     231209 F51  0.2+  0.1+
231205 F51  0.2+  0.3+    231208 F52  0.3+  0.1-    231209 F51  0.2-  0.0
231205 F51  0.0   0.1+    231209 I52  0.2-  0.5-    231212 F51  0.3-  0.0
231205 F51  0.2+  0.0     231209 I52  0.4-  0.8-    231212 F51  0.6+  0.2-
231208 F52  0.1+  0.0     231209 I52  0.4+  0.9+    231212 F51  0.1-  0.3+

Ephemeris:
2023 XL11                a,e,i = 2.59, 0.64, 6                   q = 0.9257
Date    TT    R. A. (2000) Decl.     Delta      r    Elong.  Phase     V
2023 11 12    03 47 16.8 +01 36 03   0.2694  1.2481   161.2    14.8    25.1
...
2023 11 27    03 55 24.8 -00 56 38   0.1504  1.1276   157.9    19.3    23.7
...
2023 12 05    04 08 04.3 -02 39 59   0.09351 1.0702   153.7    24.1    22.7
...
2023 12 11    04 36 23.4 -04 59 50   0.05317 1.0316   150.9    27.6    21.5
2023 12 12    04 45 55.8 -05 39 45   0.04672 1.0256   150.5    28.2    21.3
2023 12 13    04 58 32.9 -06 29 54   0.04039 1.0198   150.0    28.8    21.0
...
2023 12 19    10 19 02.3 -14 44 10   0.01614 0.9877   102.9    76.2    20.3
...
2023 12 27    14 30 41.3 -03 15 39   0.05918 0.9542    58.9   118.1    25.1
...
2024 01 11    15 15 44.9 -01 31 36   0.1577  0.9255    64.1   107.1    26.4

A. U. Tomatic                (C) Copyright 2023 MPC           M.P.E.C. 2023-X253





More information about the Iaude mailing list